timestamp,surface_pressure_avg,surface_temp_avg,battery_voltage,lat,long
2019-05-07 00:00:00+00:00,364.7747,2.8,13.05,47.84626,-54.09684
2019-05-07 00:10:00+00:00,366.0546,2.8,12.97,47.84626,-54.09684
2019-05-07 00:20:00+00:00,367.553,2.8,12.97,47.84626,-54.09684
2019-05-07 00:30:00+00:00,366.3696,2.8,12.97,47.84626,-54.09684
2019-05-07 00:40:00+00:00,368.9062,2.76,12.97,47.84626,-54.09684
2019-05-07 00:50:00+00:00,373.1295,2.7,12.97,47.84626,-54.09684
2019-05-07 01:00:00+00:00,370.3113,2.7,12.97,47.84626,-54.09684
2019-05-07 01:10:00+00:00,365.3862,2.7,12.81,47.84626,-54.09684
2019-05-07 01:20:00+00:00,364.638,2.68,12.97,47.84626,-54.09684
2019-05-07 01:30:00+00:00,368.0412,2.67,12.97,47.84626,-54.09684
2019-05-07 01:40:00+00:00,363.8662,2.6,12.97,47.84626,-54.09684
2019-05-07 01:50:00+00:00,356.1812,2.6,12.97,47.84626,-54.09684
2019-05-07 02:00:00+00:00,355.8796,2.6,12.89,47.84626,-54.09684
2019-05-07 02:10:00+00:00,353.3029,2.6,12.81,47.84626,-54.09684
2019-05-07 02:20:00+00:00,346.1613,2.6,12.89,47.84626,-54.09684
2019-05-07 02:30:00+00:00,341.5679,2.64,12.89,47.84626,-54.09684
2019-05-07 02:40:00+00:00,339.5313,2.69,12.97,47.84626,-54.09684
2019-05-07 02:50:00+00:00,333.2446,2.7,12.97,47.84626,-54.09684
2019-05-07 03:00:00+00:00,326.3395,2.72,12.89,47.84626,-54.09684
2019-05-07 03:10:00+00:00,322.938,2.77,12.81,47.84626,-54.09684
2019-05-07 03:20:00+00:00,315.5046,2.78,12.89,47.84626,-54.09684
2019-05-07 03:30:00+00:00,302.8297,2.8,12.89,47.84626,-54.09684
2019-05-07 03:40:00+00:00,295.7347,2.8,12.89,47.84626,-54.09684
2019-05-07 03:50:00+00:00,291.393,2.8,12.89,47.84626,-54.09684
2019-05-07 04:00:00+00:00,280.9347,2.8,12.81,47.84626,-54.09684
2019-05-07 04:10:00+00:00,268.7031,2.8,12.73,47.84626,-54.09684
2019-05-07 04:20:00+00:00,259.7281,2.8,12.81,47.84626,-54.09684
2019-05-07 04:30:00+00:00,251.2781,2.8,12.89,47.84626,-54.09684
2019-05-07 04:40:00+00:00,239.1913,2.8,12.89,47.84626,-54.09684
2019-05-07 04:50:00+00:00,228.5981,2.8,12.89,47.84626,-54.09684
2019-05-07 05:00:00+00:00,221.4164,2.8,12.81,47.84626,-54.09684
2019-05-07 05:10:00+00:00,214.7714,2.8,12.73,47.84626,-54.09684
2019-05-07 05:20:00+00:00,203.6948,2.8,12.81,47.84626,-54.09684
2019-05-07 05:30:00+00:00,196.6648,2.8,12.81,47.84626,-54.09684
2019-05-07 05:40:00+00:00,193.0598,2.8,12.81,47.84626,-54.09684
2019-05-07 05:50:00+00:00,185.3915,2.8,12.89,47.84626,-54.09684
2019-05-07 06:00:00+00:00,177.1915,2.8,12.81,47.84626,-54.09684
2019-05-07 06:10:00+00:00,174.3998,2.8,12.73,47.84626,-54.09684
2019-05-07 06:20:00+00:00,173.8465,2.8,12.81,47.84626,-54.09684
2019-05-07 06:30:00+00:00,172.7714,2.8,12.81,47.84626,-54.09684
2019-05-07 06:40:00+00:00,171.3282,2.8,12.81,47.84626,-54.09684
2019-05-07 06:50:00+00:00,168.2732,2.8,12.81,47.84626,-54.09684
2019-05-07 07:00:00+00:00,171.5582,2.8,12.73,47.84626,-54.09684
2019-05-07 07:10:00+00:00,179.3998,2.74,12.65,47.84626,-54.09684
2019-05-07 07:20:00+00:00,182.3215,2.7,12.73,47.84626,-54.09684
2019-05-07 07:30:00+00:00,182.3615,2.7,12.73,47.84626,-54.09684
2019-05-07 07:40:00+00:00,185.0331,2.68,12.81,47.84626,-54.09684
2019-05-07 07:50:00+00:00,190.0248,2.6,12.81,47.84626,-54.09684
2019-05-07 08:00:00+00:00,193.8082,2.6,12.73,47.84626,-54.09684
2019-05-07 08:10:00+00:00,196.9148,2.52,12.65,47.84626,-54.09684
2019-05-07 08:20:00+00:00,201.6264,2.5,12.73,47.84626,-54.09684
2019-05-07 08:30:00+00:00,207.4214,2.5,12.73,47.84626,-54.09684
2019-05-07 08:40:00+00:00,210.5498,2.5,12.81,47.84626,-54.09684
2019-05-07 08:50:00+00:00,213.6614,2.5,12.89,47.84626,-54.09684
2019-05-07 09:00:00+00:00,221.4881,2.5,12.81,47.84626,-54.09684
2019-05-07 09:10:00+00:00,225.8364,2.5,12.73,47.84626,-54.09684
2019-05-07 09:20:00+00:00,226.9898,2.5,12.81,47.84626,-54.09684
2019-05-07 09:30:00+00:00,232.6497,2.5,12.89,47.84626,-54.09684
2019-05-07 09:40:00+00:00,239.8764,2.5,13.05,47.84626,-54.09684
2019-05-07 09:50:00+00:00,245.0064,2.5,13.21,47.84626,-54.09684
2019-05-07 10:00:00+00:00,250.2081,2.5,13.6,47.84626,-54.09684
2019-05-07 10:10:00+00:00,255.4264,2.5,13.92,47.84626,-54.09684
2019-05-07 10:20:00+00:00,257.7448,2.5,13.92,47.84626,-54.09684
2019-05-07 10:30:00+00:00,263.5297,2.54,13.92,47.84626,-54.09684
2019-05-07 10:40:00+00:00,272.7264,2.56,14.16,47.84626,-54.09684
2019-05-07 10:50:00+00:00,281.1248,2.58,14.32,47.84626,-54.09684
2019-05-07 11:00:00+00:00,286.333,2.49,14.24,47.84626,-54.09684
2019-05-07 11:10:00+00:00,292.3231,2.69,14.56,47.84626,-54.09684
2019-05-07 11:20:00+00:00,298.8363,2.76,14.88,47.84626,-54.09684
2019-05-07 11:30:00+00:00,306.588,2.8,15.51,47.84626,-54.09684
2019-05-07 11:40:00+00:00,313.163,2.7,15.27,47.84626,-54.09684
2019-05-07 11:50:00+00:00,317.308,2.68,14.72,47.84626,-54.09684
2019-05-07 12:00:00+00:00,319.5113,2.65,14.8,47.84626,-54.09684
2019-05-07 12:10:00+00:00,322.288,2.6,14.64,47.84626,-54.09684
2019-05-07 12:20:00+00:00,327.2247,2.55,15.75,47.84626,-54.09684
2019-05-07 12:30:00+00:00,332.2679,2.87,15.04,47.84626,-54.09684
2019-05-07 12:40:00+00:00,333.698,2.92,14.88,47.84626,-54.09684
2019-05-07 12:50:00+00:00,334.2329,2.99,14.72,47.84626,-54.09684
2019-05-07 13:00:00+00:00,338.4397,3.0,14.56,47.84626,-54.09684
2019-05-07 13:10:00+00:00,338.5179,3.0,14.4,47.84626,-54.09684
2019-05-07 13:20:00+00:00,335.623,3.0,14.48,47.84626,-54.09684
2019-05-07 13:30:00+00:00,336.968,2.9,14.48,47.84626,-54.09684
2019-05-07 13:40:00+00:00,338.4913,2.88,14.56,47.84626,-54.09684
2019-05-07 13:50:00+00:00,334.8446,2.89,14.56,47.84626,-54.09684
2019-05-07 14:00:00+00:00,329.448,2.8,14.56,47.84626,-54.09684
2019-05-07 14:10:00+00:00,329.4713,2.6,14.72,47.84626,-54.09684
2019-05-07 14:20:00+00:00,326.7081,2.6,14.88,47.84626,-54.09684
2019-05-07 14:30:00+00:00,321.6696,2.6,14.72,47.84626,-54.09684
2019-05-07 14:40:00+00:00,318.8996,2.61,14.8,47.84626,-54.09684
2019-05-07 14:50:00+00:00,316.8496,2.62,14.8,47.84626,-54.09684
2019-05-07 15:00:00+00:00,310.8214,2.6,14.56,47.84626,-54.09684
2019-05-07 15:10:00+00:00,302.028,2.63,14.64,47.84626,-54.09684
2019-05-07 15:20:00+00:00,300.0213,2.68,14.88,47.84626,-54.09684
2019-05-07 15:30:00+00:00,297.1213,2.7,14.88,47.84626,-54.09684
2019-05-07 15:40:00+00:00,289.2164,2.7,14.8,47.84626,-54.09684
2019-05-07 15:50:00+00:00,283.3064,2.7,14.64,47.84626,-54.09684
2019-05-07 16:00:00+00:00,278.3647,2.7,14.64,47.84626,-54.09684
2019-05-07 16:10:00+00:00,267.2097,3.2,14.64,47.84626,-54.09684
2019-05-07 16:20:00+00:00,256.3014,2.83,14.64,47.84626,-54.09684
2019-05-07 16:30:00+00:00,252.1364,2.75,14.64,47.84626,-54.09684
2019-05-07 16:40:00+00:00,244.4364,2.9,14.64,47.84626,-54.09684
2019-05-07 16:50:00+00:00,232.1464,3.1,14.64,47.84626,-54.09684
2019-05-07 17:00:00+00:00,223.3781,3.17,14.56,47.84626,-54.09684
2019-05-07 17:10:00+00:00,220.1381,3.1,14.48,47.84626,-54.09684
2019-05-07 17:20:00+00:00,211.3031,2.9,14.56,47.84626,-54.09684
2019-05-07 17:30:00+00:00,197.3864,3.1,14.56,47.84626,-54.09684
2019-05-07 17:40:00+00:00,191.6714,3.4,14.56,47.84626,-54.09684
2019-05-07 17:50:00+00:00,190.5832,3.3,14.48,47.84626,-54.09684
2019-05-07 18:00:00+00:00,183.0231,3.2,14.4,47.84626,-54.09684
2019-05-07 18:10:00+00:00,176.9415,3.1,14.24,47.84626,-54.09684
2019-05-07 18:20:00+00:00,175.3982,3.1,14.32,47.84626,-54.09684
2019-05-07 18:30:00+00:00,173.8681,3.1,14.32,47.84626,-54.09684
2019-05-07 18:40:00+00:00,170.8165,2.97,14.24,47.84626,-54.09684
2019-05-07 18:50:00+00:00,170.5915,3.03,14.32,47.84626,-54.09684
2019-05-07 19:00:00+00:00,173.0965,3.1,14.24,47.84626,-54.09684
2019-05-07 19:10:00+00:00,173.8248,2.9,14.16,47.84626,-54.09684
2019-05-07 19:20:00+00:00,173.2115,2.98,14.16,47.84626,-54.09684
2019-05-07 19:30:00+00:00,175.8531,3.02,14.16,47.84626,-54.09684
2019-05-07 19:40:00+00:00,181.3465,3.07,14.16,47.84626,-54.09684
2019-05-07 19:50:00+00:00,189.0531,3.22,14.16,47.84626,-54.09684
2019-05-07 20:00:00+00:00,192.6164,3.72,14.08,47.84626,-54.09684
2019-05-07 20:10:00+00:00,197.1115,3.78,14.0,47.84626,-54.09684
2019-05-07 20:20:00+00:00,203.6682,3.68,14.0,47.84626,-54.09684
2019-05-07 20:30:00+00:00,208.8448,3.0,14.0,47.84626,-54.09684
2019-05-07 20:40:00+00:00,214.4098,3.18,14.08,47.84626,-54.09684
2019-05-07 20:50:00+00:00,219.5481,3.3,14.08,47.84626,-54.09684
2019-05-07 21:00:00+00:00,223.7747,3.41,14.0,47.84626,-54.09684
2019-05-07 21:10:00+00:00,228.4064,3.47,13.92,47.84626,-54.09684
2019-05-07 21:20:00+00:00,234.2598,3.1,13.92,47.84626,-54.09684
2019-05-07 21:30:00+00:00,239.5797,3.1,13.92,47.84626,-54.09684
2019-05-07 21:40:00+00:00,244.6414,3.32,14.0,47.84626,-54.09684
2019-05-07 21:50:00+00:00,249.0731,3.6,14.0,47.84626,-54.09684
2019-05-07 22:00:00+00:00,257.1381,3.4,13.92,47.84626,-54.09684
2019-05-07 22:10:00+00:00,265.4814,3.1,13.76,47.84626,-54.09684
2019-05-07 22:20:00+00:00,271.4865,3.1,13.76,47.84626,-54.09684
2019-05-07 22:30:00+00:00,273.8114,3.29,13.68,47.84626,-54.09684
2019-05-07 22:40:00+00:00,281.6314,3.27,13.68,47.84626,-54.09684
2019-05-07 22:50:00+00:00,291.298,3.05,13.6,47.84626,-54.09684
2019-05-07 23:00:00+00:00,297.6614,3.06,13.53,47.84626,-54.09684
2019-05-07 23:10:00+00:00,299.8196,3.03,13.37,47.84626,-54.09684
2019-05-07 23:20:00+00:00,308.7263,3.07,13.37,47.84626,-54.09684
2019-05-07 23:30:00+00:00,318.5764,3.1,13.29,47.84626,-54.09684
2019-05-07 23:40:00+00:00,324.723,3.0,13.29,47.84626,-54.09684
2019-05-07 23:50:00+00:00,331.593,2.9,13.29,47.84626,-54.09684
